Location: Dötzum
(52.0808°N, 9.8063°E)
Time: 04:57:29
(UTC+00:00)

NPP - Pass Details

Date: 27 May 2022
Orbit: 826 x 828 km, 98.7° (Epoch: 26 June)

Event Time Altitude Azimuth Distance (km) Brightness Sun altitude
Rises 01:28:39 0° 14° (NNE) 3,381 8.5 -11.3°
Reaches altitude 10° 01:31:01 10° 14° (NNE) 2,443 7.4 -11.1°
Maximum altitude 01:36:26 83° 289° (WNW) 840 3.7 -10.7°
Enters shadow 01:41:22 13° 201° (SSW) 2,251 5.3 -10.2°
